Location: Trout Lake
(45.9980°N, 121.5270°W)
Time: 16:05:52
(UTC-07:00)

Daily predictions for brighter satellites

Satellite Brightness Start Highest point End
(mag) Time Altitude Azimuth Time Altitude Azimuth Time Altitude Azimuth
Cosmos 1455 Rocket 4.0 21:31:27 10° N 21:35:23 32° ENE 21:39:16 10° SE
Cosmos 1417 Rocket 4.5 21:31:50 10° S 21:37:55 77° E 21:44:04 10° N
USA 245 4.3 21:35:46 10° SE 21:40:29 41° ENE 21:44:22 10° N
Cosmos 1025 Rocket 4.0 21:38:05 10° SSE 21:41:44 28° E 21:45:25 10° NNE
SL-24 R/B 4.3 21:39:21 10° SSE 21:43:29 61° ENE 21:47:57 10° N
Meteor 2-5 Rocket 4.3 21:39:28 10° SSE 21:44:31 38° E 21:49:35 10° NNE
Cosmos 1238 Rocket 4.4 21:40:40 10° NNW 21:45:52 59° W 21:51:50 10° S
X-37B 2.2 21:44:59 10° S 21:46:22 13° SSE 21:47:45 10° ESE
Cosmos 1455 4.0 21:44:15 10° NNE 21:46:55 18° ENE 21:49:34 10° ESE
Helios 1A Rocket 4.0 21:46:41 10° SE 21:50:14 30° ENE 21:53:50 10° N
Cosmos 1943 3.5 21:44:56 10° SSW 21:50:36 75° WNW 21:56:17 10° NNE
APEX 4.3 21:44:51 10° SSW 21:50:48 77° WNW 21:55:48 10° NNE
Cosmos 1709 Rocket 4.2 21:46:41 10° N 21:52:47 58° ENE 21:58:54 10° SSE
DELTA 2 R/B (1) 4.4 21:48:36 10° W 21:53:38 35° SSW 21:58:39 10° SE
Cosmos 1603 4.0 21:50:23 10° SSW 21:56:04 77° WNW 22:01:50 10° NNE
Lacrosse 4 Rocket 3.0 21:57:16 10° WSW 22:01:10 39° NW 22:05:02 10° NNE
Cosmos 1371 Rocket 4.3 21:58:09 10° S 22:03:06 46° ESE 22:08:08 10° NNE
Spot 2 Rocket 3.9 21:58:53 10° SE 22:03:44 51° ENE 22:08:40 10° N
Cosmos 1975 Rocket 3.1 22:03:14 10° S 22:07:38 66° E 22:12:04 10° NNE
H-2A R/B 3.4 22:04:44 10° N 22:08:52 43° WNW 22:13:03 10° SW
CARTOSAT-1 3.6 22:06:37 10° S 22:10:55 80° WSW 22:15:15 10° NNW
Tiangong 1.8 22:12:01 10° WSW 22:14:56 34° S 22:17:16 14° ESE
IRAS Rocket 4.4 22:11:32 10° NNE 22:17:11 82° WNW 22:22:45 10° SSW
Lacrosse 5 rocket 1.9 22:14:22 10° NW 22:18:06 49° NNE 22:21:45 12° ESE
S3M 4.4 22:13:47 10° SSW 22:19:56 65° W 22:26:04 10° N
SPOT 3 Rocket 3.7 22:15:08 10° S 22:20:18 79° WSW 22:25:33 10° NNW
SPOT 5 2.7 22:17:03 13° SSE 22:20:58 68° ENE 22:25:19 10° N
USA 267 3.4 22:16:35 10° ENE 22:22:59 53° SE 22:29:21 10° SSW
Resurs 01 Rocket 3.3 22:20:16 10° SSW 22:24:08 29° W 22:28:03 10° NW
Cosmos 1624 Rocket 4.0 22:19:11 10° S 22:24:21 65° ESE 22:29:32 10° NNE
CZ-2C R/B 4.0 22:22:05 10° NNE 22:26:33 47° E 22:30:21 13° S
Cosmos 1544 Rocket 3.7 22:22:37 10° N 22:26:53 56° ENE 22:30:04 17° SSE
Cosmos 2369 Rocket 4.3 22:23:04 10° NW 22:27:08 21° W 22:31:12 10° SSW
BREEZE-M DEB (TANK) 2.1 22:25:23 10° WSW 22:27:25 77° NNW 22:31:26 10° ENE
Cosmos 1190 Rocket 4.1 22:22:59 10° NNW 22:28:21 88° WSW 22:32:44 15° SSE
Cosmos 1607 3.9 22:22:47 10° SSW 22:28:55 63° ESE 22:35:02 10° NE
FALCON 9 DEB 4.0 22:26:32 10° W 22:29:42 49° NNW 22:32:54 10° NE
USA 276 2.9 22:29:46 10° SSW 22:32:16 26° SE 22:34:46 10° E
Meteor 1-24 Rocket 3.5 22:27:36 10° S 22:32:53 83° E 22:38:17 10° NNE
Cosmos 407 Rocket 4.1 22:29:00 10° NNW 22:34:03 53° WSW 22:38:38 12° S
NOSS 2-1 (D) 4.5 22:32:43 10° NNW 22:37:04 53° NE 22:41:58 15° ESE
Cosmos 2084 3.3 22:35:01 10° SSW 22:38:44 51° SE 22:42:29 10° NE
Cosmos 1271 Rocket 2.8 22:35:46 10° N 22:39:45 67° ENE 22:42:17 21° SSE
Cosmos 2056 Rocket 3.6 22:39:00 10° SSW 22:44:22 87° WNW 22:49:50 10° NNE
SL-8 R/B 4.1 22:42:51 10° W 22:47:39 65° N 22:52:27 10° E
CZ-4B R/B 4.1 22:46:05 10° NNW 22:47:41 14° WNW 22:49:16 10° W
Lacrosse 5 2.3 22:42:58 10° NW 22:48:03 61° NE 22:52:09 15° ESE
ERS-1 Rocket 3.1 22:44:17 16° S 22:48:18 77° WSW 22:53:22 10° NNW
Cosmos 1656 4.2 22:44:47 10° NNW 22:50:03 47° ENE 22:53:51 18° SE
ATLAS 2AS CENTAUR R/B 2.7 22:46:13 10° NW 22:53:24 82° NE 22:58:17 20° SE
Cosmos 1420 Rocket 4.0 22:49:57 10° SSW 22:55:10 87° WNW 23:00:30 10° NNE
Cosmos 676 Rocket 4.0 22:49:49 10° NNW 22:55:11 85° WSW 22:58:42 22° SSE
Cosmos 2184 Rocket 4.1 22:49:28 10° N 22:55:36 63° ENE 22:59:48 21° SSE
ARIANE 5 R/B 2.6 22:54:18 22° SSE 22:57:08 80° ENE 23:01:37 10° NNW
USA 234 3.6 22:50:47 10° ESE 22:57:14 64° NNE 23:03:43 10° NW
Cosmos 1833 Rocket 3.8 22:55:51 20° SE 22:57:57 26° ESE 23:02:29 10° NE
USA 32 4.3 22:54:04 10° SSW 22:59:15 66° W 23:04:28 10° N
ATLAS 5 CENTAUR R/B 3.8 22:53:05 10° NW 23:03:29 38° WSW 23:06:25 17° SSW
Terra 2.0 23:00:31 20° S 23:03:48 68° WSW 23:08:34 10° NNW
SAR-Lupe-1 4.3 23:06:05 10° NNE 23:09:33 48° E 23:10:42 34° SSE
GP-B 4.4 23:08:56 10° NNE 23:12:40 26° E 23:14:12 21° ESE
Cosmos 2082 Rocket 3.9 23:14:11 14° ESE 23:15:12 15° E 23:18:17 10° ENE
X-37B 2.2 23:18:40 10° WSW 23:19:40 19° SW 23:19:40 19° SW
Cosmos 1850 Rocket 4.1 23:16:30 10° NNW 23:21:42 66° ENE 23:24:26 28° SE
Cosmos 1455 3.4 23:19:01 10° NNW 23:22:30 35° W 23:24:43 18° SSW
Cosmos 1703 3.1 23:23:03 31° S 23:24:51 89° WNW 23:28:43 10° N
Cosmos 1328 4.4 23:26:11 33° SE 23:27:15 41° E 23:31:03 10° NNE
NOSS 2-1 (E) 4.2 23:30:58 10° NW 23:35:41 70° SW 23:39:01 29° SSE
Cosmos 1536 Rocket 4.3 23:36:02 18° SW 23:39:01 48° WNW 23:43:14 10° N
Cosmos 2344 4.5 23:30:29 10° NW 23:39:12 66° NE 23:49:57 14° SE
ASTEX 1 3.5 23:34:48 10° N 23:39:48 66° E 23:41:59 33° SSE
Cosmos 1331 Rocket 4.1 23:39:44 31° S 23:42:07 58° ESE 23:47:19 10° NNE
Cosmos 1892 4.0 23:43:04 24° E 23:43:21 24° E 23:46:26 10° NE
COSMOS 2406 3.9 23:43:25 30° SE 23:45:15 37° ESE 23:50:29 10° NE
Cosmos 1452 Rocket 3.6 23:42:22 19° SSW 23:46:12 78° WNW 23:51:29 10° NNE
Cosmos 1606 Rocket 3.4 23:43:48 10° N 23:48:09 87° E 23:49:37 41° S
Cosmos 2327 Rocket 4.5 23:42:27 10° N 23:48:52 88° W 23:52:15 30° S
Tiangong 3.3 23:48:37 10° WSW 23:49:30 16° WSW 23:49:30 16° WSW
TSX-5 4.4 23:49:04 20° SW 23:52:07 73° WNW 23:57:40 10° NNE
RESURS DK-1 2.3 23:50:17 10° NNW 23:54:27 84° ENE 23:55:37 46° SE
Cosmos 2228 3.5 23:51:22 10° NNW 23:55:28 49° W 23:57:03 32° SSW
